Погода в Шаи-Шаи

Мозамбик     25°02′51″S   33°38′32″E
темп.,
°C
ветер,
м/с
пор.,
м/с
влажн.,
%
обл.,
%
осадки,
мм/ч
давл.,
гПа
погр.,
м
15 апреля, чт
чт1523:00+20св37920 0.0 1017143
02:00+18св22960 0.0 101732
05:00+18сз11960 0.0 101817
08:00+23сз22720 0.0 1019270
11:00+29ю11470 0.0 10181296
14:00+29ююв33470 0.0 10151076
17:00+25вюв35650 0.0 1014212
20:00+21всв37790 0.0 1015144
16 апреля, пт
пт1623:00+19св23904 0.0 101663
02:00+18св249357 0.0 101672
05:00+18зюз23925 0.1 101846
08:00+23ю71185100 3.9 1020828
11:00+22ю101577100 9.3 10221389
14:00+21ю111573100 10.4 10221580
17:00+21ю101566100 0.4 10241809
20:00+21ю9135989 0.4 10251442
17 апреля, сб
сб1723:00+20ююв71168100 0.6 1025893
02:00+19ююв7126699 1.2 1024863
05:00+19ююв51067100 0.3 1025585
08:00+20ююв5866100 0.8 1026610
11:00+21ююв4660100 0.4 10261041
14:00+23ююв455441 1.1 10241557
17:00+21ююв356412 0.1 1024176
20:00+20юв3462100 0.3 1025103
18 апреля, вс
вс1823:00+19вюв22581 0.0 102533
02:00+19ссз116278 0.0 102414
05:00+16сз22734 0.0 102523
08:00+20зсз23628 0.0 1026232
11:00+26вюв01440 0.0 10251608
14:00+25юв43480 0.0 10221097
17:00+22в47630 0.0 1022330
20:00+19всв39800 0.0 1023200
19 апреля, пн
пн1923:00+17св39880 0.0 1023183
02:00+16ссв25900 0.0 102297
05:00+16ссв23900 0.0 102259
08:00+20ссз34700 0.0 1023282
11:00+27с11465 0.0 10221317
14:00+27юв33476 0.0 10191198
17:00+23вюв47665 0.0 1019290
20:00+20в38790 0.0 1021157